Regional Weather Roundup
Issued by NWS

Home | Current Version | Previous Version | Text Only | Print | Product List | Glossary On
Versions: 1 2 3 4 5 6 7 8 9 10 11 12 13 14 15 16 17 18 19 20 21 22 23 24 25 26 27 28 29 30 31 32 33 34 35 36 37 38 39 40 41 42 43 44 45 46 47 48 49 50
000
ASUS44 KOUN 020210
RWROK

WEATHER ROUNDUP FOR OKLAHOMA
NATIONAL WEATHER SERVICE NORMAN OK
900 PM CDT TUE SEP 01 2015

NOTE: "FAIR" INDICATES FEW OR NO CLOUDS BELOW 12,000 FEET WITH NO
      SIGNIFICANT WEATHER AND/OR OBSTRUCTIONS TO VISIBILITY.

OKZ001>007-009>012-014-015-017-020300-
NORTHWEST OKLAHOMA AND THE PANHANDLE

CITY           SKY/WX    TMP DP  RH WIND       PRES   REMARKS
GAGE           PTCLDY    82  56  40 S10       29.98R
GUYMON         CLOUDY    82  56  40 SW8       29.99R
ENID/WOODRING  PTCLDY    82  64  54 SE12      29.95R
$$

OKZ016-021>023-033>039-044-045-020300-
SOUTHWEST OKLAHOMA

CITY           SKY/WX    TMP DP  RH WIND       PRES   REMARKS
LAWTON/REGL    CLEAR     85  60  42 SE7       29.98R
LAWTON/FT SILL CLEAR     84  62  47 SE8       29.97R
FREDERICK      CLEAR     85  61  44 SE10      29.95R
CLINTON        CLEAR     84  58  40 SE12      30.01R
HOBART         CLEAR     85  59  41 SE12      29.99R
ALTUS AFB      CLEAR     82  60  46 SE10      29.97R
$$

OKZ018>020-024>031-020300-
CENTRAL OKLAHOMA

CITY           SKY/WX    TMP DP  RH WIND       PRES   REMARKS
OKLAHOMA CITY  PTCLDY    81  63  54 S9        30.00R
OKC/WILEY POST CLEAR     85  61  44 S14       30.00R
OKC/TINKER AFB CLEAR     80  66  62 SE9       30.00R
STILLWATER     CLEAR     83  68  60 SE10      29.99R
GUTHRIE        CLEAR     83  64  52 SE7       29.98R
$$

OKZ008-013-054>072-020300-
NORTHEAST OKLAHOMA

CITY           SKY/WX    TMP DP  RH WIND       PRES   REMARKS
TULSA          CLEAR     80  71  74 SE8       29.99R
TULSA/JONES    CLEAR     84  68  58 SE6       30.00R
PONCA CITY     CLEAR     83  69  62 SE13      29.97R
BARTLESVILLE   CLEAR     76  70  82 CALM      30.01R
MUSKOGEE       CLEAR     79  70  74 CALM      30.02R
$$

OKZ032-040>043-046>053-073>077-020300-
SOUTH CENTRAL/SOUTHEAST OKLAHOMA

CITY           SKY/WX    TMP DP  RH WIND       PRES   REMARKS
ARDMORE/DWNTWN CLEAR     79  63  57 CALM      30.00R
MCALESTER      CLEAR     82  64  54 S5        30.02R
$$




USA.gov is the U.S. government's official web portal to all federal, state and local government web resources and services.